Track STARLINK-31389 now! 10-day predictions STARLINK-31389 is classified as:
1 59013U 24036R 24325.40916921 .00000953 00000-0 44270-4 0 9999 2 59013 53.1608 121.4730 0000164 347.6757 12.4239 15.30191181 42716